Regional Weather Roundup
Issued by NWS New Orleans/Baton Rouge, LA

Home | Current Version | Previous Version | Graphics & Text | Print | Product List | Glossary On
Versions: 1 2 3 4 5 6 7 8 9 10 11 12 13 14 15 16 17 18 19 20 21 22 23 24 25 26 27 28 29 30 31 32 33 34 35 36 37 38 39 40 41 42 43 44 45 46 47 48 49 50
066
ASUS44 KLIX 282310
RWRLIX
NEW ORLEANS REGIONAL WEATHER ROUNDUP
NATIONAL WEATHER SERVICE NEW ORLEANS LA
600 PM CDT MON JUL 28 2014

NOTE: "FAIR" INDICATES FEW OR NO CLOUDS BELOW 12,000 FEET WITH NO
      SIGNIFICANT WEATHER AND/OR OBSTRUCTIONS TO VISIBILITY.
      SKY/WX - SKY CONDITION AND SIGNIFICANT WEATHER.
      TMP - AIR TEMPERATURE.     DP    - DEWPOINT TEMPERATURE.
      RH  - RELATIVE HUMIDITY.   PRES  - PRESSURE.
      HI  - HEAT INDEX.          WCI   - WIND CHILL INDEX.

*  THESE STATIONS ARE NOT NWS OR FAA STATIONS AND ARE NOT UNDER
   NWS QUALITY CONTROL.

LAZ038-040-048-061>063-065>067-069-290000-
SOUTHEAST LOUISIANA

CITY           SKY/WX    TMP DP  RH WIND       PRES   REMARKS
N.O. AUDUBON     N/A     94  76  55 MISG        N/A  HX 105
N.O. INTL ARPT PTSUNNY   92  73  53 W12       29.98F HX 100
N.O. LAKEFRONT MOSUNNY   90  77  65 W13       29.98F HX 103
N.O. DOWNTOWN*   N/A     91  72  52 W5        29.98F HX  98
SLIDELL        PTSUNNY   90  77  65 VRB5      29.96F HX 103
BATON ROUGE    PTSUNNY   89  76  65 W10       29.98F HX 100
BOOTHVILLE     MOSUNNY   87  79  76 SW14G23   29.99F HX 101
BELLE CHASSE   PTSUNNY   91  72  53 W8        29.97F HX  98
BOGALUSA*        N/A     92  76  60 NW6       29.98F HX 104
GALLIANO*      NOT AVBL
NEW ROADS*       N/A     86  76  72 MISG      29.99S HX  97
GONZALES*        N/A     89  79  72 SW3       29.98F HX 103
HAMMOND*       MOSUNNY   93  73  52 W7        29.99F HX 102
HOUMA*         NOT AVBL
PORT FOURCHON* CLEAR     88  79  74 W16       30.01F HX 102

$$

MSZ070-080>082-290000-
SOUTHERN MISSISSIPPI

CITY           SKY/WX    TMP DP  RH WIND       PRES   REMARKS
MCCOMB         PTSUNNY   86  76  71 NW7       30.00F THUNDER HX  96
GULFPORT       MOSUNNY   95  74  50 W8        29.95F HX 105
BILOXI         MOSUNNY   92  77  60 VRB3      29.95F HX 105
PASCAGOULA     MOSUNNY   92  76  59 NW6       29.95F HX 104
STENNIS ARPT*  MOSUNNY  N/A N/A N/A W3        29.97F

$$

COASTAL OBSERVATIONS
LAKE AND NEARSHORE STATIONS

STATION/POSITION TIME  TEMP    WIND        PRES    WAVE
                       AIR SEA DIR/SP/G            HT/PER
                 (UTC) (F)     (DEG/KT/KT) (MB)    (FT/S)
PASCAGOULA       2300   90     250/ 14/ 17 1013.9
WAVELAND YACHT   2300   89     300/  4/  8 1014.1
GRAND ISLE       2300   88 88  260/ 13/ 17 1016.4
SOUTHWEST PASS   2300   87 85  280/ 18/ 23 1016.4
NEW CANAL        2300   91 86  260/  5/  7 1015.6
SHELL BEACH      2300   88 84  260/  7/  8 1015.1

OFFSHORE STATIONS

STATION/POSITION TIME  TEMP    WIND        PRES    WAVE
                       AIR SEA DIR/SP/G            HT/PER
                 (UTC) (F)     (DEG/KT/KT) (MB)    (FT/S)
64 S DAUPHIN ISL 2239   86 87  260/ 16/ 19 1015.6

$$




USA.gov is the U.S. government's official web portal to all federal, state and local government web resources and services.